ARIANE 5 R/B, 53766

Orbit data source: Space-Track

ARIANE 5 R/B, 53766 is space debris in HEO originally from a launch on Wed, 07 Sep 2022 UTC launched from the French Guiana (FRGUI). Debris objects in space refer to the collection of defunct objects orbiting the Earth. Examples of debris include non-operational satellites, rocket bodies, and fragments generated from explosions, collisions, or faulty payload assembly.

Loading next visibility...
Identifier
53766, 2022-110B
Orbit
HEO
Country
Flag of FRFR
Related business
Manufacturer
ArianeGroup
Mission
Spacecraft
Bus & Motor
ESC-A, Unknown motor
Mass
~5,000 kg wet, ~5,000 kg dry
Launch date (UTC)
2022-09-07 (4 years ago)
Launch vehicle
Unknown
Launch site
French Guiana (FRGUI)
Object type
Payload
Rocket body
Debris
Shape & HBR
Cyl + 1 Nozzle, 3.5 m
Radar Cross Section
41.627 m², Large (>1 m²)

Expand to show TLE details & history
Last TLE update: 1 week ago

TLE from 1 week ago
0 ARIANE 5 R/B
1 53766U 22110B   26166.35918746  .00259564  14253-5  10914-1 0  9994
2 53766   3.9463 196.4619 7864527  82.4008 351.3648  1.61962946 11614
Epoch: 2026-06-15T08:37Z
TLE epoch observation values (Epoch: 2026-06-15T08:37:13.796Z)
Latitude
-0.00004°
Longitude
164.14947°
Altitude
4,052.92 km
Speed
7.962 km/s
True Right ascension
13h 08m 24s
True Declination
0° 00' 00"
Sunlit
Object was in daylight at epoch
Visualization orbit readout
Latitude
Unknown
Longitude
Unknown
Altitude
Unknown
Speed
Unknown
Apparent Right ascension
Unknown
Apparent Declination
Unknown
Sunlit
N/A
Visualization observer readout
Local Sidereal Time
23:08:19
Azimuth
Unknown
Elevation
Unknown
Doppler factor
Unknown
Orbital elements
Apogee altitude
48,348.963 km
Perigee altitude
163.78 km
Semi-major axis
30,634.508 km
Eccentricity
0.78645
Inclination
3.9463°
RAAN
196.4619°
Arg. of periapsis
82.4008°
True anomaly
277.89146°
Mean anomaly
351.3648°
Eccentric anomaly
326.48341°
Mean motion
0.40479 °/min
Orbital period
889.36 mins
BSTAR
0.010914
Loading maneuver chart data...
Computing Atmospheric mass density...
Loading historical data...
Loading historical data...
Loading historical data...
Loading historical data...
Loading historical data...
Loading historical data...
Loading historical data...
Other satellites on launch #110 in the year 2022 (2022-09-07 UTC)

Documentation

Showing up to 5 results
|